K5MJM Weather Reports


time (UTC)temp
F
wind
direction
speed
knots
gust
knots
rain 1hr
in
rain 24hr
in
rain mn
in
humidity
%
barometer
mb
20260906205317 103 180 1.7 2.6 0.00 0.00 0.00 29 1013.8
20260906204317 103 90 5.2 7.8 0.00 0.00 0.00 27 1013.9
20260906203318 103 225 4.3 7.0 0.00 0.00 0.00 26 1014.1
20260906202358 103 203 1.7 4.3 0.00 0.00 0.00 26 1014.1
20260906201317 103 68 2.6 7.8 0.00 0.00 0.00 29 1014.3
20260906200317 103 113 7.0 9.6 0.00 0.00 0.00 28 1014.4
20260906195317 102 203 3.5 7.8 0.00 0.00 0.00 28 1014.7
20260906194317 103 158 6.1 9.6 0.00 0.00 0.00 30 1014.8
20260906193317 103 135 7.0 10.4 0.00 0.00 0.00 30 1015.0
20260906192317 102 180 6.1 8.7 0.00 0.00 0.00 30 1015.0
20260906191317 102 225 2.6 6.1 0.00 0.00 0.00 32 1015.1
20260906190317 101 180 6.1 8.7 0.00 0.00 0.00 32 1015.2
20260906185358 102 158 4.3 6.1 0.00 0.00 0.00 32 1015.4
20260906184318 103 135 7.0 9.6 0.00 0.00 0.00 31 1015.6
20260906183338 102 135 4.3 7.8 0.00 0.00 0.00 33 1015.7
20260906182317 101 248 4.3 11.3 0.00 0.00 0.00 33 1015.7
20260906181317 101 225 2.6 3.5 0.00 0.00 0.00 34 1015.9
20260906180318 101 158 5.2 7.0 0.00 0.00 0.00 35 1016.1
20260906175337 100 180 2.6 5.2 0.00 0.00 0.00 34 1016.2
20260906174317 100 158 5.2 7.0 0.00 0.00 0.00 36 1016.5
20260906173318 100 180 5.2 8.7 0.00 0.00 0.00 35 1016.8
20260906172317 99 270 0.9 3.5 0.00 0.00 0.00 36 1016.8
20260906171319 99 135 6.1 8.7 0.00 0.00 0.00 38 1017.0
20260906170317 98 113 1.7 5.2 0.00 0.00 0.00 38 1017.1
20260906165317 96 225 2.6 6.1 0.00 0.00 0.00 39 1017.1
20260906164318 95 0.0 0.9 0.00 0.00 0.00 39 1017.1
20260906163337 95 180 1.7 2.6 0.00 0.00 0.00 39 1017.3
20260906162318 95 180 0.9 2.6 0.00 0.00 0.00 40 1017.3
20260906161317 95 203 0.9 2.6 0.00 0.00 0.00 40 1017.3
20260906160317 96 270 0.9 5.2 0.00 0.00 0.00 39 1017.3
20260906155317 95 225 1.7 4.3 0.00 0.00 0.00 40 1017.1
20260906154359 95 225 2.6 6.1 0.00 0.00 0.00 41 1017.1
20260906153317 94 315 2.6 5.2 0.00 0.00 0.00 42 1017.1
20260906152317 93 225 2.6 4.3 0.00 0.00 0.00 44 1017.0
20260906151317 92 203 1.7 3.5 0.00 0.00 0.00 45 1017.0
20260906150318 92 225 0.9 2.6 0.00 0.00 0.00 46 1017.0
20260906145317 91 225 0.9 2.6 0.00 0.00 0.00 47 1016.9
20260906144319 90 0.0 0.0 0.00 0.00 0.00 48 1017.0
20260906143318 89 248 0.9 2.6 0.00 0.00 0.00 49 1016.8
20260906142319 88 225 1.7 5.2 0.00 0.00 0.00 50 1016.8
20260906141338 87 0.0 0.9 0.00 0.00 0.00 50 1016.8
20260906140317 86 225 1.7 6.1 0.00 0.00 0.00 51 1016.7
20260906135317 85 0.0 1.7 0.00 0.00 0.00 52 1016.5
20260906134317 84 248 1.7 6.1 0.00 0.00 0.00 53 1016.4
20260906133317 83 0.0 0.0 0.00 0.00 0.00 54 1016.4
20260906132337 82 180 0.9 1.7 0.00 0.00 0.00 55 1016.4
20260906131319 81 158 0.9 1.7 0.00 0.00 0.00 57 1016.3
20260906130317 80 248 0.9 2.6 0.00 0.00 0.00 58 1016.1
20260906125319 79 180 2.6 5.2 0.00 0.00 0.00 58 1016.0
20260906124438 79 180 2.6 5.2 0.00 0.00 0.00 58 1015.8
20260906123319 79 203 1.7 4.3 0.00 0.00 0.00 58 1015.7
20260906122317 79 158 1.7 4.3 0.00 0.00 0.00 58 1015.6
20260906121317 79 203 1.7 2.6 0.00 0.00 0.00 57 1015.6
20260906120319 79 180 0.9 2.6 0.00 0.00 0.00 57 1015.5
20260906115317 80 203 1.7 5.2 0.00 0.00 0.00 57 1015.5
20260906114337 80 203 2.6 4.3 0.00 0.00 0.00 56 1015.4
20260906113339 80 180 2.6 4.3 0.00 0.00 0.00 56 1015.3
20260906112317 80 203 1.7 3.5 0.00 0.00 0.00 56 1015.1
20260906111319 80 180 3.5 5.2 0.00 0.00 0.00 56 1015.0
20260906110337 80 203 3.5 6.1 0.00 0.00 0.00 56 1015.0
20260906105317 80 180 2.6 5.2 0.00 0.00 0.00 56 1015.0
20260906104339 80 180 1.7 4.3 0.00 0.00 0.00 56 1014.8
20260906103317 80 203 2.6 3.5 0.00 0.00 0.00 55 1014.9
20260906102319 81 203 1.7 3.5 0.00 0.00 0.00 54 1014.9
20260906101317 81 248 1.7 3.5 0.00 0.00 0.00 53 1015.0
20260906100317 81 203 1.7 4.3 0.00 0.00 0.00 53 1014.8
20260906095317 81 225 2.6 3.5 0.00 0.00 0.00 53 1014.9
20260906094319 81 225 0.9 2.6 0.00 0.00 0.00 53 1014.9
20260906093319 82 0.0 0.9 0.00 0.00 0.00 52 1014.9
20260906092319 81 225 1.7 4.3 0.00 0.00 0.00 52 1014.9
20260906091319 82 203 1.7 2.6 0.00 0.00 0.00 52 1014.9
20260906090317 82 203 0.9 4.3 0.00 0.00 0.00 52 1014.9
20260906085339 82 180 2.6 4.3 0.00 0.00 0.00 52 1014.8
20260906084317 82 203 1.7 2.6 0.00 0.00 0.00 51 1014.7
20260906083319 82 225 1.7 4.3 0.00 0.00 0.00 51 1014.7
20260906082339 82 225 1.7 4.3 0.00 0.00 0.00 51 1014.7
20260906081317 82 203 1.7 2.6 0.00 0.00 0.00 51 1014.6
20260906080319 82 225 0.9 0.9 0.00 0.00 0.00 51 1014.7
20260906075319 83 225 0.9 2.6 0.00 0.00 0.00 50 1014.9
20260906074317 83 203 0.9 2.6 0.00 0.00 0.00 50 1014.7
20260906073319 83 180 1.7 2.6 0.00 0.00 0.00 50 1014.7
20260906072317 83 180 2.6 3.5 0.00 0.00 0.00 50 1014.8
20260906071319 83 203 3.5 4.3 0.00 0.00 0.00 50 1014.8
20260906070339 83 225 1.7 2.6 0.00 0.00 0.00 50 1014.8
20260906065319 83 203 1.7 3.5 0.00 0.00 0.00 49 1014.8
20260906064319 84 203 0.9 2.6 0.00 0.00 0.00 49 1014.8
20260906063319 84 248 1.7 4.3 0.00 0.00 0.00 48 1014.8
20260906062319 84 203 1.7 2.6 0.00 0.00 0.00 48 1014.9
20260906061319 85 203 1.7 3.5 0.00 0.00 0.00 48 1014.9
20260906060319 85 225 2.6 4.3 0.00 0.00 0.00 47 1014.9
20260906055319 85 203 2.6 4.3 0.00 0.00 0.00 47 1014.8
20260906054319 85 203 1.7 4.3 0.00 0.00 0.00 46 1014.8
20260906053318 86 203 1.7 3.5 0.00 0.00 0.00 46 1014.9
20260906052319 86 225 1.7 3.5 0.00 0.00 0.00 45 1014.8
20260906051319 86 203 2.6 3.5 0.00 0.00 0.00 45 1014.7
20260906050319 86 180 1.7 2.6 0.00 0.00 0.00 45 1014.6
20260906045318 87 225 1.7 3.5 0.00 0.00 0.00 45 1014.4
20260906044338 87 203 2.6 5.2 0.00 0.00 0.00 45 1014.5
20260906043318 87 180 2.6 4.3 0.00 0.00 0.00 45 1014.6
20260906042358 87 203 1.7 2.6 0.00 0.00 0.00 44 1014.6
20260906041317 88 180 2.6 4.3 0.00 0.00 0.00 44 1014.8
20260906040318 88 180 3.5 5.2 0.00 0.00 0.00 43 1014.7
20260906035318 88 203 3.5 5.2 0.00 0.00 0.00 44 1014.6
20260906034318 88 203 3.5 6.1 0.00 0.00 0.00 44 1014.5
20260906033318 88 158 3.5 6.1 0.00 0.00 0.00 44 1014.5
20260906032318 88 180 2.6 4.3 0.00 0.00 0.00 44 1014.5
20260906031318 89 180 2.6 3.5 0.00 0.00 0.00 43 1014.5
20260906030317 89 180 2.6 4.3 0.00 0.00 0.00 43 1014.4
20260906025318 90 158 1.7 3.5 0.00 0.00 0.00 42 1014.4
20260906024318 90 158 4.3 6.1 0.00 0.00 0.00 41 1014.2
20260906023318 91 158 3.5 5.2 0.00 0.00 0.00 41 1014.2
20260906022338 91 135 3.5 6.1 0.00 0.00 0.00 40 1013.9
20260906021318 91 158 2.6 5.2 0.00 0.00 0.00 40 1013.8
20260906020318 91 158 2.6 4.3 0.00 0.00 0.00 39 1013.7
20260906015318 91 158 1.7 3.5 0.00 0.00 0.00 39 1013.7
20260906014318 92 158 2.6 5.2 0.00 0.00 0.00 39 1013.5
20260906013338 92 158 2.6 4.3 0.00 0.00 0.00 38 1013.3
20260906012318 93 158 2.6 4.3 0.00 0.00 0.00 37 1013.1
20260906011318 94 158 1.7 3.5 0.00 0.00 0.00 36 1012.9
20260906010317 94 158 0.9 3.5 0.00 0.00 0.00 36 1013.0
20260906005318 95 180 1.7 2.6 0.00 0.00 0.00 35 1012.9
20260906004318 96 158 4.3 5.2 0.00 0.00 0.00 34 1012.7
20260906003318 96 158 5.2 7.8 0.00 0.00 0.00 34 1012.6
20260906002318 97 203 3.5 5.2 0.00 0.00 0.00 34 1012.6
20260906001317 97 158 5.2 7.8 0.00 0.00 0.00 34 1012.7
20260906000318 97 158 6.1 9.6 0.00 0.00 0.00 33 1012.6
20260905235317 98 203 2.6 5.2 0.00 0.00 0.00 32 1012.5
20260905234318 98 180 2.6 4.3 0.00 0.00 0.00 32 1012.4
20260905233318 98 203 5.2 7.0 0.00 0.00 0.00 31 1012.3
20260905232317 99 180 4.3 10.4 0.00 0.00 0.00 32 1012.4
20260905231318 99 180 5.2 7.8 0.00 0.00 0.00 31 1012.3
20260905230319 100 203 6.1 9.6 0.00 0.00 0.00 30 1012.5
20260905225338 100 158 6.1 8.7 0.00 0.00 0.00 29 1012.4
20260905224338 100 158 6.1 8.7 0.00 0.00 0.00 29 1012.4
20260905223318 100 135 4.3 7.8 0.00 0.00 0.00 29 1012.4
20260905222318 100 158 9.6 12.2 0.00 0.00 0.00 29 1012.3
20260905221318 101 158 4.3 7.8 0.00 0.00 0.00 29 1012.5
20260905220318 100 135 5.2 9.6 0.00 0.00 0.00 30 1012.6
20260905215317 101 158 5.2 8.7 0.00 0.00 0.00 28 1012.6
20260905214318 101 158 6.1 12.2 0.00 0.00 0.00 29 1012.8
20260905213338 101 113 7.8 12.2 0.00 0.00 0.00 29 1012.9
20260905212318 102 113 6.1 9.6 0.00 0.00 0.00 30 1013.2
20260905211318 101 180 7.0 9.6 0.00 0.00 0.00 29 1013.2
20260905210317 102 113 9.6 12.2 0.00 0.00 0.00 30 1013.5